ABS-2

Last updated on Sept. 29, 2020, 5:50 a.m. UTC

1 39508U 14006A   20272.86427449 -.00000106  00000-0  00000+0 0  9990
2 39508   0.0209  97.6220 0003729  79.6243 216.9110  1.00272674 24393
UTC
Height (km)
Latitude
Longitude
Inclination
Orbital Period
UTC large
Height (km)
Speed (km/s)
/
Latitude / Longitude
Inclination (degrees)
Orbital Period (minutes)
Azimuth
Elevation
Range (km)
Doppler Factor
iOS Compass Heading
iOS Angle

Next 30 passes for location: Hong Kong

Rise time Rise Azimuth (degrees) Set time Set Azimuth (degrees) Duration Max altitude (degrees)

No matching passes for this satellites